GLO2070 SBGL-SBFL

Flight info

Callsign GLO2070
Flight time N/A
Altitude 36000
Route BITAK UN857 EGDED
Aircraft B738/M-SDE2E3FGHIRWXY/LB1

Departure

Time 2026-05-05 00:09
Airport Rio Galeão – Tom Jobim International Airport (SBGL)

Arrival

Time N/A
Airport Hercílio Luz International Airport (SBFL)
Time Latitude Longitude Altitude Speed Heading
2026-05-04 23:46 -22.81611 -43.24503 37 ft 0 kts 341°
2026-05-04 23:57 -22.81612 -43.24503 37 ft 1 kts 341°
2026-05-04 23:58 -22.81626 -43.24498 37 ft 2 kts 341°
2026-05-04 23:58 -22.81640 -43.24493 37 ft 2 kts 341°
2026-05-04 23:58 -22.81654 -43.24488 37 ft 2 kts 341°
2026-05-04 23:58 -22.81668 -43.24482 37 ft 2 kts 341°
2026-05-04 23:59 -22.81677 -43.24479 37 ft 1 kts 341°
2026-05-04 23:59 -22.81690 -43.24471 37 ft 2 kts 302°
2026-05-04 23:59 -22.81694 -43.24455 37 ft 2 kts 266°
2026-05-04 23:59 -22.81693 -43.24446 37 ft 1 kts 245°
2026-05-05 00:00 -22.81689 -43.24439 37 ft 0 kts 243°
2026-05-05 00:02 -22.81696 -43.24453 37 ft 7 kts 234°
2026-05-05 00:02 -22.81751 -43.24504 37 ft 10 kts 239°
2026-05-05 00:02 -22.81742 -43.24570 37 ft 11 kts 329°
2026-05-05 00:02 -22.81691 -43.24632 37 ft 10 kts 304°
2026-05-05 00:03 -22.81649 -43.24699 37 ft 10 kts 304°
2026-05-05 00:03 -22.81607 -43.24764 37 ft 9 kts 305°
2026-05-05 00:03 -22.81567 -43.24826 38 ft 11 kts 307°
2026-05-05 00:03 -22.81506 -43.24902 38 ft 13 kts 308°
2026-05-05 00:04 -22.81466 -43.24990 37 ft 12 kts 292°
2026-05-05 00:04 -22.81420 -43.25070 37 ft 12 kts 306°
2026-05-05 00:04 -22.81366 -43.25135 37 ft 11 kts 313°
2026-05-05 00:04 -22.81319 -43.25202 35 ft 12 kts 306°
2026-05-05 00:05 -22.81262 -43.25284 32 ft 14 kts 314°
2026-05-05 00:05 -22.81182 -43.25351 30 ft 14 kts 334°
2026-05-05 00:05 -22.81089 -43.25383 29 ft 13 kts 354°
2026-05-05 00:05 -22.81000 -43.25379 29 ft 11 kts
2026-05-05 00:06 -22.80946 -43.25436 28 ft 11 kts 297°
2026-05-05 00:06 -22.80906 -43.25522 27 ft 14 kts 295°
2026-05-05 00:06 -22.80861 -43.25619 27 ft 14 kts 302°
2026-05-05 00:06 -22.80783 -43.25680 26 ft 18 kts
2026-05-05 00:07 -22.80666 -43.25599 24 ft 19 kts 34°
2026-05-05 00:07 -22.80573 -43.25531 24 ft 14 kts 26°
2026-05-05 00:07 -22.80486 -43.25565 24 ft 13 kts 327°
2026-05-05 00:07 -22.80404 -43.25611 24 ft 14 kts 352°
2026-05-05 00:08 -22.80318 -43.25564 24 ft 13 kts 39°
2026-05-05 00:08 -22.80249 -43.25505 24 ft 12 kts 34°
2026-05-05 00:08 -22.80181 -43.25481 24 ft 9 kts 60°
2026-05-05 00:08 -22.80162 -43.25411 24 ft 11 kts 74°
2026-05-05 00:09 -22.80081 -43.25099 24 ft 79 kts 74°
2026-05-05 00:09 -22.79875 -43.24303 24 ft 140 kts 74°
2026-05-05 00:09 -22.79558 -43.23129 276 ft 170 kts 73°
2026-05-05 00:09 -22.79212 -43.21887 918 ft 174 kts 72°
2026-05-05 00:10 -22.78936 -43.20654 1578 ft 175 kts 76°
2026-05-05 00:10 -22.78696 -43.19316 2008 ft 188 kts 76°
2026-05-05 00:10 -22.78388 -43.17902 2363 ft 204 kts 71°
2026-05-05 00:10 -22.77957 -43.16360 2728 ft 223 kts 71°
2026-05-05 00:11 -22.77539 -43.14678 3236 ft 239 kts 74°
2026-05-05 00:11 -22.77167 -43.12926 3971 ft 244 kts 76°
2026-05-05 00:11 -22.76805 -43.11109 4726 ft 248 kts 76°
2026-05-05 00:11 -22.76445 -43.09290 5425 ft 253 kts 77°
2026-05-05 00:12 -22.76071 -43.07406 6134 ft 258 kts 77°
2026-05-05 00:12 -22.75834 -43.05477 6863 ft 261 kts 90°
2026-05-05 00:12 -22.76170 -43.03553 7481 ft 268 kts 115°
2026-05-05 00:12 -22.77372 -43.01990 7894 ft 281 kts 148°
2026-05-05 00:13 -22.79205 -43.01245 8532 ft 285 kts 169°
2026-05-05 00:13 -22.81198 -43.00934 9358 ft 291 kts 175°
2026-05-05 00:13 -22.83196 -43.01090 10227 ft 292 kts 199°
2026-05-05 00:13 -22.85004 -43.02092 10910 ft 301 kts 214°
2026-05-05 00:14 -22.86764 -43.03438 11442 ft 316 kts 216°
2026-05-05 00:14 -22.88505 -43.04808 11945 ft 329 kts 216°
2026-05-05 00:14 -22.90375 -43.06280 12626 ft 337 kts 216°
2026-05-05 00:14 -22.92300 -43.07793 13418 ft 341 kts 216°
2026-05-05 00:15 -22.94222 -43.09301 14214 ft 343 kts 217°
2026-05-05 00:15 -22.96149 -43.10812 14961 ft 346 kts 217°
2026-05-05 00:15 -22.98115 -43.12356 15713 ft 348 kts 217°
2026-05-05 00:15 -23.00089 -43.13905 16433 ft 350 kts 217°
2026-05-05 00:16 -23.02051 -43.15445 17085 ft 353 kts 218°
2026-05-05 00:16 -23.04077 -43.17039 17755 ft 356 kts 218°
2026-05-05 00:16 -23.05808 -43.18402 18291 ft 359 kts 218°
2026-05-05 00:16 -23.07803 -43.19973 18893 ft 361 kts 218°
2026-05-05 00:17 -23.09832 -43.21569 19499 ft 364 kts 218°
2026-05-05 00:17 -23.11902 -43.23195 20055 ft 367 kts 218°
2026-05-05 00:17 -23.13988 -43.24831 20649 ft 369 kts 218°
2026-05-05 00:17 -23.16114 -43.26500 21223 ft 372 kts 218°
2026-05-05 00:18 -23.18199 -43.28138 21751 ft 374 kts 218°
2026-05-05 00:18 -23.20315 -43.29799 22285 ft 376 kts 218°
2026-05-05 00:18 -23.22467 -43.31493 22788 ft 379 kts 218°
2026-05-05 00:18 -23.24590 -43.33168 23269 ft 382 kts 218°
2026-05-05 00:19 -23.26766 -43.34888 23732 ft 385 kts 218°
2026-05-05 00:19 -23.28942 -43.36609 24196 ft 387 kts 218°
2026-05-05 00:19 -23.31113 -43.38326 24680 ft 389 kts 218°
2026-05-05 00:19 -23.33300 -43.40055 25158 ft 391 kts 218°
2026-05-05 00:20 -23.35523 -43.41814 25589 ft 394 kts 218°
2026-05-05 00:20 -23.37735 -43.43565 26007 ft 396 kts 218°
2026-05-05 00:20 -23.39983 -43.45345 26446 ft 398 kts 218°
2026-05-05 00:20 -23.42229 -43.47125 26875 ft 399 kts 218°
2026-05-05 00:21 -23.44468 -43.48900 27251 ft 402 kts 218°
2026-05-05 00:21 -23.46730 -43.50693 27673 ft 403 kts 218°
2026-05-05 00:21 -23.49002 -43.52493 28060 ft 405 kts 218°
2026-05-05 00:21 -23.51280 -43.54299 28423 ft 407 kts 218°
2026-05-05 00:22 -23.53592 -43.56135 28769 ft 410 kts 218°
2026-05-05 00:22 -23.55896 -43.57967 29128 ft 412 kts 218°
2026-05-05 00:22 -23.58197 -43.59796 29474 ft 414 kts 218°
2026-05-05 00:22 -23.60530 -43.61648 29831 ft 415 kts 218°
2026-05-05 00:23 -23.62828 -43.63524 30169 ft 415 kts 221°
2026-05-05 00:23 -23.65026 -43.65586 30515 ft 415 kts 225°
2026-05-05 00:23 -23.67128 -43.67765 30881 ft 415 kts 226°
2026-05-05 00:23 -23.69167 -43.69971 31298 ft 414 kts 227°
2026-05-05 00:24 -23.71196 -43.72196 31859 ft 410 kts 227°
2026-05-05 00:24 -23.73208 -43.74404 32283 ft 408 kts 227°
2026-05-05 00:24 -23.75212 -43.76597 32650 ft 408 kts 227°
2026-05-05 00:24 -23.77191 -43.78751 33013 ft 407 kts 227°
2026-05-05 00:25 -23.79198 -43.80929 33430 ft 405 kts 227°
2026-05-05 00:25 -23.81198 -43.83096 33835 ft 403 kts 227°
2026-05-05 00:25 -23.83186 -43.85245 34258 ft 401 kts 227°
2026-05-05 00:25 -23.85193 -43.87413 34678 ft 399 kts 227°
2026-05-05 00:26 -23.87174 -43.89548 35053 ft 397 kts 227°
2026-05-05 00:26 -23.89142 -43.91671 35419 ft 396 kts 227°
2026-05-05 00:26 -23.91120 -43.93807 35777 ft 394 kts 227°
2026-05-05 00:26 -23.93092 -43.95937 36128 ft 393 kts 227°
2026-05-05 00:27 -23.95046 -43.98050 36175 ft 397 kts 227°
2026-05-05 00:27 -23.98986 -44.02308 36174 ft 392 kts 227°
2026-05-05 00:28 -24.02901 -44.06530 36174 ft 393 kts 227°
2026-05-05 00:28 -24.06817 -44.10767 36174 ft 394 kts 227°
2026-05-05 00:29 -24.10712 -44.14986 36173 ft 393 kts 227°
2026-05-05 00:29 -24.14593 -44.19195 36168 ft 393 kts 227°
2026-05-05 00:30 -24.18483 -44.23420 36169 ft 393 kts 227°
2026-05-05 00:30 -24.22360 -44.27629 36168 ft 392 kts 227°
2026-05-05 00:31 -24.26234 -44.31839 36171 ft 393 kts 227°
2026-05-05 00:31 -24.30115 -44.36060 36170 ft 392 kts 227°
2026-05-05 00:32 -24.33972 -44.40254 36169 ft 393 kts 227°
2026-05-05 00:32 -24.37851 -44.44477 36166 ft 393 kts 227°
2026-05-05 00:33 -24.41714 -44.48694 36171 ft 393 kts 227°
2026-05-05 00:33 -24.45600 -44.52940 36170 ft 393 kts 227°
2026-05-05 00:34 -24.49481 -44.57177 36169 ft 392 kts 227°
2026-05-05 00:34 -24.53304 -44.61405 36175 ft 392 kts 227°
2026-05-05 00:35 -24.57136 -44.65695 36173 ft 392 kts 228°
2026-05-05 00:35 -24.60982 -44.70006 36174 ft 392 kts 227°
2026-05-05 00:36 -24.64802 -44.74291 36173 ft 393 kts 227°
2026-05-05 00:36 -24.68633 -44.78584 36167 ft 393 kts 227°
2026-05-05 00:37 -24.72447 -44.82861 36171 ft 393 kts 227°
2026-05-05 00:37 -24.76288 -44.87164 36167 ft 392 kts 227°
2026-05-05 00:38 -24.80092 -44.91445 36164 ft 392 kts 227°
2026-05-05 00:38 -24.83880 -44.95708 36163 ft 392 kts 227°
2026-05-05 00:39 -24.87693 -44.99997 36170 ft 392 kts 227°
2026-05-05 00:39 -24.91517 -45.04304 36172 ft 392 kts 227°
2026-05-05 00:40 -24.95344 -45.08615 36172 ft 392 kts 227°
2026-05-05 00:40 -24.99153 -45.12912 36172 ft 391 kts 227°
2026-05-05 00:41 -25.02941 -45.17189 36169 ft 391 kts 227°
2026-05-05 00:41 -25.06739 -45.21480 36169 ft 391 kts 227°
2026-05-05 00:42 -25.10548 -45.25793 36168 ft 390 kts 227°
2026-05-05 00:42 -25.14352 -45.30109 36166 ft 392 kts 227°
2026-05-05 00:43 -25.18164 -45.34430 36169 ft 390 kts 227°
2026-05-05 00:43 -25.21930 -45.38706 36168 ft 390 kts 227°
2026-05-05 00:44 -25.25704 -45.42983 36168 ft 389 kts 227°
2026-05-05 00:44 -25.29505 -45.47300 36167 ft 389 kts 227°
2026-05-05 00:45 -25.33263 -45.51575 36162 ft 388 kts 227°
2026-05-05 00:45 -25.37006 -45.55848 36163 ft 388 kts 227°
2026-05-05 00:46 -25.40763 -45.60128 36161 ft 388 kts 227°
2026-05-05 00:46 -25.44537 -45.64431 36158 ft 387 kts 227°
2026-05-05 00:47 -25.48302 -45.68742 36157 ft 387 kts 228°
2026-05-05 00:47 -25.52042 -45.73025 36156 ft 388 kts 228°
2026-05-05 00:48 -25.55791 -45.77316 36155 ft 386 kts 228°
2026-05-05 00:48 -25.59512 -45.81569 36154 ft 387 kts 228°
2026-05-05 00:49 -25.63248 -45.85861 36155 ft 387 kts 228°